Time,TemperatureF,DewpointF,PressureIn,WindDirection,WindDirectionDegrees,WindSpeedMPH,WindSpeedGustMPH,Humidity,HourlyPrecipIn,Conditions,Clouds,dailyrainin,SoftwareType,DateUTC
2013-05-13 00:00:00,37.5,31.3,30.10,WNW,295,0.0,0.0,78,0.00,,BKN065,0.01,VWS V14.01,2013-05-13 04:00:00,
2013-05-13 00:01:00,37.5,31.3,30.10,WNW,295,0.0,0.0,78,0.00,,BKN065,0.00,VWS V14.01,2013-05-13 04:01:00,
2013-05-13 00:02:00,37.5,31.3,30.10,WNW,295,0.0,0.0,78,0.00,,BKN065,0.00,VWS V14.01,2013-05-13 04:02:00,
2013-05-13 00:03:00,37.5,31.3,30.10,WNW,295,0.0,0.0,78,0.00,,BKN065,0.00,VWS V14.01,2013-05-13 04:03:00,
2013-05-13 00:06:00,37.5,31.3,30.10,WNW,295,0.0,0.0,78,0.00,,BKN065,0.00,VWS V14.01,2013-05-13 04:06:00,
2013-05-13 00:11:00,37.4,31.2,30.10,WNW,295,0.0,0.0,78,0.00,,BKN065,0.00,VWS V14.01,2013-05-13 04:11:00,
2013-05-13 00:16:00,37.4,31.2,30.10,WNW,295,0.0,0.0,78,0.00,,BKN065,0.00,VWS V14.01,2013-05-13 04:16:00,
2013-05-13 00:21:00,37.3,31.1,30.10,WNW,295,0.0,0.0,78,0.00,,OVC090,0.00,VWS V14.01,2013-05-13 04:21:00,
2013-05-13 00:26:00,37.2,31.0,30.10,WNW,295,0.0,0.0,78,0.00,,OVC090,0.00,VWS V14.01,2013-05-13 04:26:00,
2013-05-13 00:31:00,37.1,31.2,30.10,WNW,293,0.0,0.0,79,0.00,,OVC090,0.00,VWS V14.01,2013-05-13 04:31:00,
2013-05-13 00:36:00,37.1,30.9,30.10,WNW,293,0.0,0.0,78,0.00,,OVC090,0.00,VWS V14.01,2013-05-13 04:36:00,
2013-05-13 00:41:00,37.0,31.1,30.10,WNW,293,0.0,0.0,79,0.00,,OVC090,0.00,VWS V14.01,2013-05-13 04:41:00,
2013-05-13 00:46:00,36.9,31.0,30.10,WNW,293,0.0,0.0,79,0.00,,OVC090,0.00,VWS V14.01,2013-05-13 04:46:00,
2013-05-13 00:51:00,36.8,30.9,30.10,WNW,293,0.0,0.0,79,0.00,,OVC090,0.00,VWS V14.01,2013-05-13 04:51:00,
2013-05-13 00:56:00,36.7,30.8,30.10,WNW,293,0.0,0.0,79,0.00,,OVC090,0.00,VWS V14.01,2013-05-13 04:56:00,
2013-05-13 01:01:00,36.5,30.6,30.10,WNW,293,0.0,0.0,79,0.00,,OVC090,0.00,VWS V14.01,2013-05-13 05:01:00,
2013-05-13 01:07:00,36.4,30.5,30.10,WNW,293,0.0,0.0,79,0.00,,OVC090,0.00,VWS V14.01,2013-05-13 05:07:00,
2013-05-13 01:12:00,36.1,29.9,30.10,WNW,293,0.0,0.0,78,0.00,,OVC090,0.00,VWS V14.01,2013-05-13 05:12:00,
2013-05-13 01:17:00,35.8,29.6,30.10,WNW,293,0.0,0.0,78,0.00,,OVC090,0.00,VWS V14.01,2013-05-13 05:17:00,
2013-05-13 01:22:00,35.8,29.6,30.10,WNW,293,0.0,0.0,78,0.00,,OVC090,0.00,VWS V14.01,2013-05-13 05:22:00,
2013-05-13 01:27:00,35.5,29.3,30.10,WNW,293,0.0,0.0,78,0.00,,OVC090,0.00,VWS V14.01,2013-05-13 05:27:00,
2013-05-13 01:32:00,35.2,29.0,30.10,WNW,293,0.0,0.0,78,0.00,,CLR,0.00,VWS V14.01,2013-05-13 05:32:00,
2013-05-13 01:37:00,35.0,28.9,30.10,WNW,293,0.0,0.0,78,0.00,,CLR,0.00,VWS V14.01,2013-05-13 05:37:00,
2013-05-13 01:42:00,34.7,28.5,30.10,WNW,293,0.0,0.0,78,0.00,,CLR,0.00,VWS V14.01,2013-05-13 05:42:00,
2013-05-13 01:47:00,34.5,28.4,30.10,WNW,293,0.0,0.0,78,0.00,,CLR,0.00,VWS V14.01,2013-05-13 05:47:00,
2013-05-13 01:52:00,34.3,28.5,30.10,WNW,293,0.0,0.0,79,0.00,,CLR,0.00,VWS V14.01,2013-05-13 05:52:00,
2013-05-13 01:57:00,34.1,28.3,30.10,WNW,293,0.0,0.0,79,0.00,,CLR,0.00,VWS V14.01,2013-05-13 05:57:00,
2013-05-13 02:02:00,33.9,28.1,30.10,WNW,293,0.0,0.0,79,0.00,,SCT100,0.00,VWS V14.01,2013-05-13 06:02:00,
2013-05-13 02:07:00,33.8,28.0,30.10,WNW,293,0.0,0.0,79,0.00,,SCT100,0.00,VWS V14.01,2013-05-13 06:07:00,
2013-05-13 02:12:00,33.6,27.8,30.10,WNW,293,0.0,0.0,79,0.00,,SCT100,0.00,VWS V14.01,2013-05-13 06:12:00,
2013-05-13 02:17:00,33.4,27.6,30.10,WNW,293,0.0,0.0,79,0.00,,SCT100,0.00,VWS V14.01,2013-05-13 06:17:00,
2013-05-13 02:23:00,33.3,27.5,30.10,WNW,293,0.0,0.0,79,0.00,,SCT100,0.00,VWS V14.01,2013-05-13 06:23:00,
2013-05-13 02:28:00,33.1,27.6,30.10,WNW,293,0.0,0.0,80,0.00,,SCT100,0.00,VWS V14.01,2013-05-13 06:28:00,
2013-05-13 02:33:00,32.9,27.4,30.10,WNW,293,0.0,0.0,80,0.00,,SCT100,0.00,VWS V14.01,2013-05-13 06:33:00,
2013-05-13 02:38:00,32.7,27.2,30.10,WNW,293,0.0,0.0,80,0.00,,SCT100,0.00,VWS V14.01,2013-05-13 06:38:00,
2013-05-13 02:43:00,32.5,27.0,30.10,WNW,293,0.0,0.0,80,0.00,,SCT100,0.00,VWS V14.01,2013-05-13 06:43:00,
2013-05-13 02:48:00,32.4,26.9,30.10,WNW,293,0.0,0.0,80,0.00,,SCT100,0.00,VWS V14.01,2013-05-13 06:48:00,
2013-05-13 02:53:00,32.2,26.7,30.10,WNW,293,0.0,0.0,80,0.00,,SCT100,0.00,VWS V14.01,2013-05-13 06:53:00,
2013-05-13 02:58:00,32.0,26.5,30.10,WNW,293,0.0,0.0,80,0.00,,SCT100,0.00,VWS V14.01,2013-05-13 06:58:00,
2013-05-13 03:03:00,31.9,26.4,30.10,WNW,293,0.0,0.0,80,0.00,,BKN095,0.00,VWS V14.01,2013-05-13 07:03:00,
2013-05-13 03:08:00,31.8,26.6,30.10,WNW,293,0.0,0.0,81,0.00,,BKN095,0.00,VWS V14.01,2013-05-13 07:08:00,
2013-05-13 03:13:00,31.6,26.5,30.10,WNW,293,0.0,0.0,81,0.00,,BKN095,0.00,VWS V14.01,2013-05-13 07:13:00,
2013-05-13 03:18:00,31.5,26.4,30.10,WNW,293,0.0,0.0,81,0.00,,BKN095,0.00,VWS V14.01,2013-05-13 07:18:00,
2013-05-13 03:23:00,31.4,26.2,30.10,WNW,293,0.0,0.0,81,0.00,,BKN095,0.00,VWS V14.01,2013-05-13 07:23:00,
2013-05-13 03:28:00,31.2,26.1,30.10,WNW,293,0.0,0.0,81,0.00,,BKN095,0.00,VWS V14.01,2013-05-13 07:28:00,
2013-05-13 03:33:00,31.1,26.0,30.10,WNW,293,0.0,0.0,81,0.00,,BKN095,0.00,VWS V14.01,2013-05-13 07:33:00,
2013-05-13 03:38:00,31.0,25.9,30.10,WNW,293,0.0,0.0,81,0.00,,BKN095,0.00,VWS V14.01,2013-05-13 07:38:00,
2013-05-13 03:43:00,30.9,26.1,30.10,WNW,293,0.0,0.0,82,0.00,,BKN095,0.00,VWS V14.01,2013-05-13 07:43:00,
2013-05-13 03:49:00,30.8,25.7,30.11,WNW,293,0.0,0.0,81,0.00,,BKN095,0.00,VWS V14.01,2013-05-13 07:49:00,
2013-05-13 03:54:00,30.7,25.9,30.11,WNW,293,0.0,0.0,82,0.00,,BKN095,0.00,VWS V14.01,2013-05-13 07:54:00,
2013-05-13 03:59:00,30.6,25.8,30.11,WNW,293,0.0,0.0,82,0.00,,BKN095,0.00,VWS V14.01,2013-05-13 07:59:00,
2013-05-13 04:04:00,30.5,25.7,30.11,WNW,293,0.0,0.0,82,0.00,,BKN085,0.00,VWS V14.01,2013-05-13 08:04:00,
2013-05-13 04:09:00,30.4,25.6,30.10,WNW,293,0.0,0.0,82,0.00,,BKN085,0.00,VWS V14.01,2013-05-13 08:09:00,
2013-05-13 04:14:00,30.3,25.5,30.10,WNW,293,0.0,0.0,82,0.00,,BKN085,0.00,VWS V14.01,2013-05-13 08:14:00,
2013-05-13 04:19:00,30.2,25.4,30.10,WNW,293,0.0,0.0,82,0.00,,BKN085,0.00,VWS V14.01,2013-05-13 08:19:00,
2013-05-13 04:24:00,30.1,25.3,30.10,WNW,293,0.0,0.0,82,0.00,,BKN085,0.00,VWS V14.01,2013-05-13 08:24:00,
2013-05-13 04:29:00,30.0,25.2,30.10,WNW,293,0.0,0.0,82,0.00,,BKN085,0.00,VWS V14.01,2013-05-13 08:29:00,
2013-05-13 04:34:00,29.8,25.0,30.10,WNW,293,0.0,0.0,82,0.00,,BKN085,0.00,VWS V14.01,2013-05-13 08:34:00,
2013-05-13 04:39:00,29.7,25.2,30.10,WNW,293,0.0,0.0,83,0.00,,BKN085,0.00,VWS V14.01,2013-05-13 08:39:00,
2013-05-13 04:44:00,29.6,25.1,30.10,WNW,293,0.0,0.0,83,0.00,,BKN085,0.00,VWS V14.01,2013-05-13 08:44:00,
2013-05-13 04:49:00,29.5,25.0,30.10,WNW,293,0.0,0.0,83,0.00,,BKN085,0.00,VWS V14.01,2013-05-13 08:49:00,
2013-05-13 04:54:00,29.4,24.9,30.10,WNW,293,0.0,0.0,83,0.00,,BKN085,0.00,VWS V14.01,2013-05-13 08:54:00,
2013-05-13 04:59:00,29.3,24.8,30.10,WNW,293,0.0,0.0,83,0.00,,BKN085,0.00,VWS V14.01,2013-05-13 08:59:00,
2013-05-13 05:04:00,29.2,24.7,30.10,WNW,293,0.0,0.0,83,0.00,,BKN085,0.00,VWS V14.01,2013-05-13 09:04:00,
2013-05-13 05:09:00,29.0,24.5,30.10,WNW,293,0.0,0.0,83,0.00,,BKN085,0.00,VWS V14.01,2013-05-13 09:09:00,
2013-05-13 05:14:00,28.9,24.4,30.10,WNW,293,0.0,0.0,83,0.00,,CLR,0.00,VWS V14.01,2013-05-13 09:14:00,
2013-05-13 05:19:00,28.8,24.3,30.10,WNW,293,0.0,0.0,83,0.00,,CLR,0.00,VWS V14.01,2013-05-13 09:19:00,
2013-05-13 05:24:00,28.7,24.2,30.10,WNW,293,0.0,0.0,83,0.00,,CLR,0.00,VWS V14.01,2013-05-13 09:24:00,
2013-05-13 05:29:00,28.6,24.1,30.10,WNW,293,0.0,0.0,83,0.00,,CLR,0.00,VWS V14.01,2013-05-13 09:29:00,
2013-05-13 05:34:00,28.5,24.0,30.10,WNW,293,0.0,0.0,83,0.00,,CLR,0.00,VWS V14.01,2013-05-13 09:34:00,
2013-05-13 05:39:00,28.4,24.2,30.10,WNW,293,0.0,0.0,84,0.00,,CLR,0.00,VWS V14.01,2013-05-13 09:39:00,
2013-05-13 05:45:00,28.3,24.1,30.10,WNW,293,0.0,0.0,84,0.00,,CLR,0.00,VWS V14.01,2013-05-13 09:45:00,
2013-05-13 05:50:00,28.2,24.0,30.10,WNW,293,0.0,0.0,84,0.00,,CLR,0.00,VWS V14.01,2013-05-13 09:50:00,
2013-05-13 05:55:00,28.1,23.9,30.10,WNW,293,0.0,0.0,84,0.00,,CLR,0.00,VWS V14.01,2013-05-13 09:55:00,
2013-05-13 06:00:00,28.0,23.8,30.10,WNW,293,0.0,0.0,84,0.00,,CLR,0.00,VWS V14.01,2013-05-13 10:00:00,
2013-05-13 06:05:00,27.9,23.7,30.10,WNW,293,0.0,0.0,84,0.00,,CLR,0.00,VWS V14.01,2013-05-13 10:05:00,
2013-05-13 06:10:00,27.9,23.7,30.10,WNW,293,0.0,0.0,84,0.00,,CLR,0.00,VWS V14.01,2013-05-13 10:10:00,
2013-05-13 06:15:00,27.8,23.6,30.10,NNW,341,0.0,0.0,84,0.00,,CLR,0.00,VWS V14.01,2013-05-13 10:15:00,
2013-05-13 06:20:00,27.7,23.5,30.10,NNW,341,0.0,0.0,84,0.00,,CLR,0.00,VWS V14.01,2013-05-13 10:20:00,
2013-05-13 06:25:00,27.7,23.8,30.10,NNW,341,0.0,0.0,85,0.00,,CLR,0.00,VWS V14.01,2013-05-13 10:25:00,
2013-05-13 06:30:00,27.6,23.4,30.10,NNW,341,0.0,0.0,84,0.00,,CLR,0.00,VWS V14.01,2013-05-13 10:30:00,
2013-05-13 06:35:00,27.6,23.7,30.10,NNW,341,0.0,0.0,85,0.00,,CLR,0.00,VWS V14.01,2013-05-13 10:35:00,
2013-05-13 06:40:00,27.6,23.7,30.10,NNW,341,0.0,0.0,85,0.00,,CLR,0.00,VWS V14.01,2013-05-13 10:40:00,
2013-05-13 06:45:00,27.5,23.6,30.10,NNW,341,0.0,0.0,85,0.00,,CLR,0.00,VWS V14.01,2013-05-13 10:45:00,
2013-05-13 06:50:00,27.5,23.6,30.10,NNW,341,0.0,0.0,85,0.00,,CLR,0.00,VWS V14.01,2013-05-13 10:50:00,
2013-05-13 06:55:00,27.5,23.6,30.11,NNW,341,0.0,0.0,85,0.00,,CLR,0.00,VWS V14.01,2013-05-13 10:55:00,
2013-05-13 07:00:00,27.4,23.5,30.11,NNW,341,0.0,0.0,85,0.00,,CLR,0.00,VWS V14.01,2013-05-13 11:00:00,
2013-05-13 07:05:00,27.5,23.6,30.11,NNW,341,0.0,0.0,85,0.00,,CLR,0.00,VWS V14.01,2013-05-13 11:05:00,
2013-05-13 07:11:00,27.6,24.0,30.11,NNW,341,0.0,0.0,86,0.00,,CLR,0.00,VWS V14.01,2013-05-13 11:11:00,
2013-05-13 07:16:00,27.9,24.3,30.12,NNW,341,0.0,0.0,86,0.00,,CLR,0.00,VWS V14.01,2013-05-13 11:16:00,
2013-05-13 07:21:00,28.3,24.9,30.12,NNW,341,0.0,0.0,87,0.00,,CLR,0.00,VWS V14.01,2013-05-13 11:21:00,
2013-05-13 07:26:00,28.7,25.3,30.12,NNW,341,0.0,0.0,87,0.00,,CLR,0.00,VWS V14.01,2013-05-13 11:26:00,
2013-05-13 07:31:00,29.3,25.9,30.12,NNW,341,0.0,0.0,87,0.00,,CLR,0.00,VWS V14.01,2013-05-13 11:31:00,
2013-05-13 07:36:00,30.1,27.0,30.13,NNW,341,0.0,0.0,88,0.00,,CLR,0.00,VWS V14.01,2013-05-13 11:36:00,
2013-05-13 07:41:00,30.8,27.7,30.13,NNW,341,0.0,0.0,88,0.00,,CLR,0.00,VWS V14.01,2013-05-13 11:41:00,
2013-05-13 07:46:00,31.7,28.8,30.13,NNW,341,0.0,0.0,89,0.00,,CLR,0.00,VWS V14.01,2013-05-13 11:46:00,
2013-05-13 07:51:00,32.8,29.9,30.13,NNW,341,0.0,0.0,89,0.00,,CLR,0.00,VWS V14.01,2013-05-13 11:51:00,
2013-05-13 07:56:00,33.7,30.8,30.14,NNW,341,0.0,0.0,89,0.00,,CLR,0.00,VWS V14.01,2013-05-13 11:56:00,
2013-05-13 08:01:00,34.7,31.8,30.14,NNW,341,0.0,0.0,89,0.00,,CLR,0.00,VWS V14.01,2013-05-13 12:01:00,
2013-05-13 08:06:00,35.4,32.5,30.14,NW,326,0.0,0.0,89,0.00,,CLR,0.00,VWS V14.01,2013-05-13 12:06:00,
2013-05-13 08:11:00,35.8,32.9,30.14,NW,321,0.0,0.0,89,0.00,,CLR,0.00,VWS V14.01,2013-05-13 12:11:00,
2013-05-13 08:16:00,36.6,33.7,30.15,WNW,299,0.0,4.0,89,0.00,,CLR,0.00,VWS V14.01,2013-05-13 12:16:00,
2013-05-13 08:21:00,37.4,34.2,30.15,WNW,299,0.0,4.0,88,0.00,,CLR,0.00,VWS V14.01,2013-05-13 12:21:00,
2013-05-13 08:26:00,38.2,34.7,30.15,WNW,290,0.0,1.0,87,0.00,,CLR,0.00,VWS V14.01,2013-05-13 12:26:00,
2013-05-13 08:31:00,39.0,34.6,30.15,West,263,3.0,7.0,84,0.00,,CLR,0.00,VWS V14.01,2013-05-13 12:31:00,
2013-05-13 08:36:00,39.7,33.7,30.15,West,265,0.0,6.0,79,0.00,,CLR,0.00,VWS V14.01,2013-05-13 12:36:00,
2013-05-13 08:41:00,40.4,33.1,30.15,West,274,0.0,7.0,75,0.00,,CLR,0.00,VWS V14.01,2013-05-13 12:41:00,
2013-05-13 08:46:00,40.9,32.9,30.15,NW,310,0.0,5.0,73,0.00,,CLR,0.00,VWS V14.01,2013-05-13 12:46:00,
2013-05-13 08:51:00,41.4,32.7,30.16,NW,312,0.0,3.0,71,0.00,,CLR,0.00,VWS V14.01,2013-05-13 12:51:00,
2013-05-13 08:56:00,41.9,31.8,30.16,NW,315,4.0,8.0,67,0.00,,CLR,0.00,VWS V14.01,2013-05-13 12:56:00,
2013-05-13 09:01:00,42.2,30.9,30.16,West,276,3.0,4.0,64,0.00,,CLR,0.00,VWS V14.01,2013-05-13 13:01:00,
2013-05-13 09:06:00,42.5,30.4,30.16,WSW,255,9.0,10.0,62,0.00,,CLR,0.00,VWS V14.01,2013-05-13 13:06:00,
2013-05-13 09:11:00,42.6,30.1,30.16,WNW,301,1.0,4.0,61,0.00,,CLR,0.00,VWS V14.01,2013-05-13 13:11:00,
2013-05-13 09:16:00,42.9,28.7,30.16,West,281,2.0,2.0,57,0.00,,CLR,0.00,VWS V14.01,2013-05-13 13:16:00,
2013-05-13 09:21:00,43.4,30.0,30.16,NW,307,2.0,7.0,59,0.00,,CLR,0.00,VWS V14.01,2013-05-13 13:21:00,
2013-05-13 09:27:00,43.8,28.2,30.17,NW,324,3.0,8.0,54,0.00,,CLR,0.00,VWS V14.01,2013-05-13 13:27:00,
2013-05-13 09:32:00,44.1,27.6,30.16,NW,326,8.0,9.0,52,0.00,,CLR,0.00,VWS V14.01,2013-05-13 13:32:00,
2013-05-13 09:37:00,44.6,27.6,30.16,North,3,0.0,3.0,51,0.00,,CLR,0.00,VWS V14.01,2013-05-13 13:37:00,
2013-05-13 09:42:00,45.0,27.5,30.16,West,277,1.0,9.0,50,0.00,,CLR,0.00,VWS V14.01,2013-05-13 13:42:00,
2013-05-13 09:47:00,45.1,26.1,30.16,NW,320,4.0,11.0,47,0.00,,CLR,0.00,VWS V14.01,2013-05-13 13:47:00,
2013-05-13 09:52:00,45.4,26.9,30.16,WNW,282,3.0,9.0,48,0.00,,CLR,0.00,VWS V14.01,2013-05-13 13:52:00,
2013-05-13 09:57:00,46.0,27.4,30.16,North,351,8.0,9.0,48,0.00,,CLR,0.00,VWS V14.01,2013-05-13 13:57:00,
2013-05-13 10:02:00,46.6,27.5,30.16,WNW,292,0.0,3.0,47,0.00,,CLR,0.00,VWS V14.01,2013-05-13 14:02:00,
2013-05-13 10:07:00,46.7,25.4,30.16,NW,306,10.0,11.0,43,0.00,,CLR,0.00,VWS V14.01,2013-05-13 14:07:00,
2013-05-13 10:12:00,46.7,26.5,30.16,West,272,2.0,8.0,45,0.00,,CLR,0.00,VWS V14.01,2013-05-13 14:12:00,
2013-05-13 10:17:00,46.8,24.9,30.16,NW,315,0.0,3.0,42,0.00,,CLR,0.00,VWS V14.01,2013-05-13 14:17:00,
2013-05-13 10:22:00,47.3,26.0,30.16,North,7,0.0,10.0,43,0.00,,CLR,0.00,VWS V14.01,2013-05-13 14:22:00,
2013-05-13 10:27:00,47.4,24.9,30.16,West,272,0.0,8.0,41,0.00,,CLR,0.00,VWS V14.01,2013-05-13 14:27:00,
2013-05-13 10:32:00,47.9,25.4,30.16,West,262,2.0,11.0,41,0.00,,CLR,0.00,VWS V14.01,2013-05-13 14:32:00,
2013-05-13 10:37:00,47.7,25.2,30.16,NW,308,7.0,12.0,41,0.00,,CLR,0.00,VWS V14.01,2013-05-13 14:37:00,
2013-05-13 10:42:00,47.9,25.9,30.16,WNW,299,0.0,7.0,42,0.00,,CLR,0.00,VWS V14.01,2013-05-13 14:42:00,
2013-05-13 10:47:00,48.3,28.0,30.16,West,280,4.0,12.0,45,0.00,,CLR,0.00,VWS V14.01,2013-05-13 14:47:00,
2013-05-13 10:52:00,48.4,26.4,30.16,WNW,300,0.0,0.0,42,0.00,,CLR,0.00,VWS V14.01,2013-05-13 14:52:00,
2013-05-13 10:57:00,48.7,26.1,30.16,NW,319,6.0,8.0,41,0.00,,CLR,0.00,VWS V14.01,2013-05-13 14:57:00,
2013-05-13 11:03:00,49.0,26.3,30.16,NW,312,0.0,9.0,41,0.00,,CLR,0.00,VWS V14.01,2013-05-13 15:03:00,
2013-05-13 11:08:00,49.4,26.7,30.16,NNW,330,1.0,10.0,41,0.00,,CLR,0.00,VWS V14.01,2013-05-13 15:08:00,
2013-05-13 11:13:00,49.6,25.7,30.16,NW,306,7.0,10.0,39,0.00,,CLR,0.00,VWS V14.01,2013-05-13 15:13:00,
2013-05-13 11:18:00,49.6,24.4,30.16,West,278,0.0,4.0,37,0.00,,CLR,0.00,VWS V14.01,2013-05-13 15:18:00,
2013-05-13 11:23:00,49.5,25.6,30.17,WNW,301,0.0,8.0,39,0.00,,CLR,0.00,VWS V14.01,2013-05-13 15:23:00,
2013-05-13 11:28:00,49.8,25.9,30.16,WNW,290,11.0,13.0,39,0.00,,CLR,0.00,VWS V14.01,2013-05-13 15:28:00,
2013-05-13 11:33:00,49.7,25.1,30.17,West,263,5.0,8.0,38,0.00,,CLR,0.00,VWS V14.01,2013-05-13 15:33:00,
2013-05-13 11:38:00,49.7,25.1,30.16,West,280,8.0,13.0,38,0.00,,CLR,0.00,VWS V14.01,2013-05-13 15:38:00,
2013-05-13 11:43:00,49.6,24.4,30.16,West,266,1.0,4.0,37,0.00,,CLR,0.00,VWS V14.01,2013-05-13 15:43:00,
2013-05-13 11:48:00,49.6,25.0,30.17,WNW,290,1.0,10.0,38,0.00,,CLR,0.00,VWS V14.01,2013-05-13 15:48:00,
2013-05-13 11:53:00,50.0,24.8,30.17,West,265,2.0,6.0,37,0.00,,CLR,0.00,VWS V14.01,2013-05-13 15:53:00,
2013-05-13 11:58:00,50.4,26.4,30.17,NW,311,0.0,0.0,39,0.00,,CLR,0.00,VWS V14.01,2013-05-13 15:58:00,
2013-05-13 12:03:00,50.9,29.8,30.16,NW,305,0.0,0.0,44,0.00,,CLR,0.00,VWS V14.01,2013-05-13 16:03:00,
2013-05-13 12:08:00,51.2,25.8,30.17,NW,309,9.0,14.0,37,0.00,,CLR,0.00,VWS V14.01,2013-05-13 16:08:00,
2013-05-13 12:13:00,51.2,25.2,30.17,WNW,286,0.0,4.0,36,0.00,,FEW060,0.00,VWS V14.01,2013-05-13 16:13:00,
2013-05-13 12:18:00,50.6,24.6,30.17,West,268,5.0,7.0,36,0.00,,FEW060,0.00,VWS V14.01,2013-05-13 16:18:00,
2013-05-13 12:23:00,51.0,26.3,30.16,West,263,4.0,5.0,38,0.00,,FEW060,0.00,VWS V14.01,2013-05-13 16:23:00,
2013-05-13 12:28:00,51.3,25.3,30.16,WNW,286,0.0,0.0,36,0.00,,FEW060,0.00,VWS V14.01,2013-05-13 16:28:00,
2013-05-13 12:34:00,51.9,28.4,30.16,SW,235,3.0,7.0,40,0.00,,FEW060,0.00,VWS V14.01,2013-05-13 16:34:00,
2013-05-13 12:39:00,52.5,28.3,30.16,SSW,196,0.0,0.0,39,0.00,,FEW060,0.00,VWS V14.01,2013-05-13 16:39:00,
2013-05-13 12:44:00,53.4,29.1,30.16,WSW,251,0.0,1.0,39,0.00,,FEW060,0.00,VWS V14.01,2013-05-13 16:44:00,
2013-05-13 12:49:00,53.4,28.5,30.16,SW,228,0.0,0.0,38,0.00,,FEW060,0.00,VWS V14.01,2013-05-13 16:49:00,
2013-05-13 12:54:00,53.7,27.4,30.16,North,358,0.0,0.0,36,0.00,,FEW060,0.00,VWS V14.01,2013-05-13 16:54:00,
2013-05-13 12:59:00,53.7,28.1,30.16,WSW,251,3.0,11.0,37,0.00,,FEW060,0.00,VWS V14.01,2013-05-13 16:59:00,
2013-05-13 13:04:00,53.2,28.3,30.16,NNW,341,0.0,0.0,38,0.00,,FEW060,0.00,VWS V14.01,2013-05-13 17:04:00,
2013-05-13 13:09:00,53.2,27.0,30.16,NW,318,9.0,14.0,36,0.00,,FEW065,0.00,VWS V14.01,2013-05-13 17:09:00,
2013-05-13 13:14:00,53.1,26.9,30.16,NW,309,3.0,8.0,36,0.00,,FEW065,0.00,VWS V14.01,2013-05-13 17:14:00,
2013-05-13 13:19:00,53.2,28.3,30.15,West,262,7.0,9.0,38,0.00,,FEW065,0.00,VWS V14.01,2013-05-13 17:19:00,
2013-05-13 13:24:00,53.2,27.6,30.15,WSW,255,4.0,10.0,37,0.00,,FEW065,0.00,VWS V14.01,2013-05-13 17:24:00,
2013-05-13 13:29:00,53.3,29.6,30.15,WNW,289,0.0,0.0,40,0.00,,FEW065,0.00,VWS V14.01,2013-05-13 17:29:00,
2013-05-13 13:34:00,53.7,28.1,30.15,WNW,302,1.0,5.0,37,0.00,,FEW065,0.00,VWS V14.01,2013-05-13 17:34:00,
2013-05-13 13:39:00,53.6,25.2,30.15,WSW,257,4.0,12.0,33,0.00,,FEW065,0.00,VWS V14.01,2013-05-13 17:39:00,
2013-05-13 13:44:00,53.4,26.5,30.15,WSW,244,2.0,7.0,35,0.00,,FEW065,0.00,VWS V14.01,2013-05-13 17:44:00,
2013-05-13 13:49:00,53.5,25.1,30.15,NNW,336,0.0,0.0,33,0.00,,FEW065,0.00,VWS V14.01,2013-05-13 17:49:00,
2013-05-13 13:54:00,53.5,25.8,30.15,WNW,288,3.0,6.0,34,0.00,,FEW065,0.00,VWS V14.01,2013-05-13 17:54:00,
2013-05-13 13:59:00,53.6,26.6,30.14,WNW,282,1.0,8.0,35,0.00,,FEW065,0.00,VWS V14.01,2013-05-13 17:59:00,
2013-05-13 14:04:00,53.8,26.8,30.14,West,263,3.0,6.0,35,0.00,,FEW065,0.00,VWS V14.01,2013-05-13 18:04:00,
2013-05-13 14:09:00,54.0,26.3,30.14,WSW,244,0.0,3.0,34,0.00,,FEW065,0.00,VWS V14.01,2013-05-13 18:09:00,
2013-05-13 14:14:00,53.9,26.2,30.14,SW,231,5.0,8.0,34,0.00,,FEW065,0.00,VWS V14.01,2013-05-13 18:14:00,
2013-05-13 14:19:00,53.4,26.5,30.14,NNW,328,0.0,9.0,35,0.00,,FEW065,0.00,VWS V14.01,2013-05-13 18:19:00,
2013-05-13 14:24:00,53.5,27.9,30.14,WNW,299,0.0,4.0,37,0.00,,FEW065,0.00,VWS V14.01,2013-05-13 18:24:00,
2013-05-13 14:29:00,54.1,28.4,30.14,West,259,0.0,0.0,37,0.00,,FEW065,0.00,VWS V14.01,2013-05-13 18:29:00,
2013-05-13 14:34:00,54.6,28.9,30.14,West,263,3.0,3.0,37,0.00,,FEW065,0.00,VWS V14.01,2013-05-13 18:34:00,
2013-05-13 14:39:00,55.0,29.2,30.14,North,355,3.0,7.0,37,0.00,,FEW065,0.00,VWS V14.01,2013-05-13 18:39:00,
2013-05-13 14:45:00,55.1,27.3,30.14,West,270,4.0,8.0,34,0.00,,FEW065,0.00,VWS V14.01,2013-05-13 18:45:00,
2013-05-13 14:50:00,54.5,27.4,30.14,NW,324,3.0,11.0,35,0.00,,FEW065,0.00,VWS V14.01,2013-05-13 18:50:00,
2013-05-13 14:55:00,54.7,28.3,30.14,West,268,1.0,5.0,36,0.00,,FEW065,0.00,VWS V14.01,2013-05-13 18:55:00,
2013-05-13 15:00:00,54.8,28.4,30.14,West,278,0.0,4.0,36,0.00,,FEW065,0.00,VWS V14.01,2013-05-13 19:00:00,
2013-05-13 15:05:00,54.5,29.4,30.14,NW,307,10.0,10.0,38,0.00,,FEW070,0.00,VWS V14.01,2013-05-13 19:05:00,
2013-05-13 15:10:00,54.7,29.0,30.14,WNW,301,0.0,0.0,37,0.00,,FEW070,0.00,VWS V14.01,2013-05-13 19:10:00,
2013-05-13 15:15:00,54.5,26.7,30.14,West,279,4.0,12.0,34,0.00,,FEW070,0.00,VWS V14.01,2013-05-13 19:15:00,
2013-05-13 15:20:00,54.5,29.4,30.13,NW,319,0.0,0.0,38,0.00,,FEW070,0.00,VWS V14.01,2013-05-13 19:20:00,
2013-05-13 15:25:00,55.1,30.0,30.13,SW,228,3.0,4.0,38,0.00,,FEW070,0.00,VWS V14.01,2013-05-13 19:25:00,
2013-05-13 15:30:00,55.2,28.7,30.13,West,266,0.0,4.0,36,0.00,,FEW070,0.00,VWS V14.01,2013-05-13 19:30:00,
2013-05-13 15:35:00,55.1,28.6,30.13,WSW,249,0.0,0.0,36,0.00,,FEW070,0.00,VWS V14.01,2013-05-13 19:35:00,
2013-05-13 15:40:00,55.0,27.2,30.13,West,265,0.0,4.0,34,0.00,,FEW070,0.00,VWS V14.01,2013-05-13 19:40:00,
2013-05-13 15:45:00,54.9,29.8,30.12,NW,317,4.0,6.0,38,0.00,,FEW070,0.00,VWS V14.01,2013-05-13 19:45:00,
2013-05-13 15:50:00,54.9,27.8,30.12,WNW,295,0.0,4.0,35,0.00,,FEW070,0.00,VWS V14.01,2013-05-13 19:50:00,
2013-05-13 15:55:00,54.8,28.4,30.12,West,263,6.0,9.0,36,0.00,,FEW070,0.00,VWS V14.01,2013-05-13 19:55:00,
2013-05-13 16:00:00,54.6,27.5,30.13,SSW,210,0.0,1.0,35,0.00,,FEW070,0.00,VWS V14.01,2013-05-13 20:00:00,
2013-05-13 16:05:00,54.5,26.7,30.12,WSW,251,0.0,10.0,34,0.00,,FEW070,0.00,VWS V14.01,2013-05-13 20:05:00,
2013-05-13 16:10:00,53.9,24.7,30.12,West,267,0.0,4.0,32,0.00,,FEW070,0.00,VWS V14.01,2013-05-13 20:10:00,
2013-05-13 16:15:00,54.0,27.0,30.12,WNW,292,7.0,9.0,35,0.00,,FEW070,0.00,VWS V14.01,2013-05-13 20:15:00,
2013-05-13 16:20:00,54.1,26.4,30.12,WSW,240,0.0,8.0,34,0.00,,FEW070,0.00,VWS V14.01,2013-05-13 20:20:00,
2013-05-13 16:25:00,54.4,28.0,30.11,WNW,303,2.0,8.0,36,0.00,,FEW070,0.00,VWS V14.01,2013-05-13 20:25:00,
2013-05-13 16:30:00,54.6,26.8,30.11,West,265,0.0,0.0,34,0.00,,FEW070,0.00,VWS V14.01,2013-05-13 20:30:00,
2013-05-13 16:35:00,54.8,26.3,30.11,WSW,255,5.0,10.0,33,0.00,,FEW070,0.00,VWS V14.01,2013-05-13 20:35:00,
2013-05-13 16:40:00,54.9,27.1,30.11,WNW,284,4.0,4.0,34,0.00,,FEW070,0.00,VWS V14.01,2013-05-13 20:40:00,
2013-05-13 16:45:00,55.0,26.5,30.11,NW,313,3.0,7.0,33,0.00,,FEW070,0.00,VWS V14.01,2013-05-13 20:45:00,
2013-05-13 16:51:00,54.9,26.4,30.11,West,265,0.0,0.0,33,0.00,,FEW070,0.00,VWS V14.01,2013-05-13 20:51:00,
2013-05-13 16:56:00,54.6,25.4,30.11,SW,218,2.0,5.0,32,0.00,,FEW070,0.00,VWS V14.01,2013-05-13 20:56:00,
2013-05-13 17:01:00,54.7,25.4,30.11,West,265,4.0,9.0,32,0.00,,FEW070,0.00,VWS V14.01,2013-05-13 21:01:00,
2013-05-13 17:06:00,54.5,24.5,30.11,West,259,1.0,5.0,31,0.00,,SCT250,0.00,VWS V14.01,2013-05-13 21:06:00,
2013-05-13 17:11:00,54.5,26.0,30.11,SW,227,0.0,0.0,33,0.00,,SCT250,0.00,VWS V14.01,2013-05-13 21:11:00,
2013-05-13 17:16:00,54.7,24.7,30.10,West,261,0.0,5.0,31,0.00,,SCT250,0.00,VWS V14.01,2013-05-13 21:16:00,
2013-05-13 17:21:00,54.8,25.5,30.10,WSW,248,7.0,7.0,32,0.00,,SCT250,0.00,VWS V14.01,2013-05-13 21:21:00,
2013-05-13 17:26:00,54.5,25.3,30.10,WSW,257,6.0,7.0,32,0.00,,SCT250,0.00,VWS V14.01,2013-05-13 21:26:00,
2013-05-13 17:31:00,54.1,23.4,30.10,SSW,199,0.0,0.0,30,0.00,,SCT250,0.00,VWS V14.01,2013-05-13 21:31:00,
2013-05-13 17:36:00,54.1,25.6,30.10,SW,225,0.0,3.0,33,0.00,,SCT250,0.00,VWS V14.01,2013-05-13 21:36:00,
2013-05-13 17:41:00,54.2,25.0,30.09,West,267,0.0,1.0,32,0.00,,SCT250,0.00,VWS V14.01,2013-05-13 21:41:00,
2013-05-13 17:46:00,54.3,25.8,30.10,WNW,291,0.0,5.0,33,0.00,,SCT250,0.00,VWS V14.01,2013-05-13 21:46:00,
2013-05-13 17:51:00,54.4,25.9,30.09,WNW,302,0.0,0.0,33,0.00,,SCT250,0.00,VWS V14.01,2013-05-13 21:51:00,
2013-05-13 17:56:00,54.2,25.7,30.10,WNW,301,0.0,7.0,33,0.00,,SCT250,0.00,VWS V14.01,2013-05-13 21:56:00,
2013-05-13 18:01:00,53.9,25.5,30.10,West,276,0.0,7.0,33,0.00,,FEW250,0.00,VWS V14.01,2013-05-13 22:01:00,
2013-05-13 18:06:00,53.6,25.2,30.10,WSW,238,0.0,0.0,33,0.00,,FEW250,0.00,VWS V14.01,2013-05-13 22:06:00,
2013-05-13 18:11:00,53.3,25.0,30.09,West,270,0.0,0.0,33,0.00,,FEW250,0.00,VWS V14.01,2013-05-13 22:11:00,
2013-05-13 18:16:00,53.2,25.6,30.09,WSW,253,0.0,1.0,34,0.00,,FEW250,0.00,VWS V14.01,2013-05-13 22:16:00,
2013-05-13 18:21:00,53.2,25.6,30.09,SW,225,0.0,5.0,34,0.00,,FEW250,0.00,VWS V14.01,2013-05-13 22:21:00,
2013-05-13 18:26:00,53.1,25.5,30.09,West,262,0.0,0.0,34,0.00,,FEW250,0.00,VWS V14.01,2013-05-13 22:26:00,
2013-05-13 18:31:00,53.1,24.0,30.09,WNW,299,0.0,4.0,32,0.00,,FEW250,0.00,VWS V14.01,2013-05-13 22:31:00,
2013-05-13 18:36:00,52.9,24.6,30.09,WNW,301,7.0,7.0,33,0.00,,FEW250,0.00,VWS V14.01,2013-05-13 22:36:00,
2013-05-13 18:41:00,52.9,25.3,30.09,NW,320,0.0,0.0,34,0.00,,FEW250,0.00,VWS V14.01,2013-05-13 22:41:00,
2013-05-13 18:46:00,52.8,25.9,30.09,NW,313,0.0,0.0,35,0.00,,FEW250,0.00,VWS V14.01,2013-05-13 22:46:00,
2013-05-13 18:51:00,52.8,25.9,30.09,WNW,295,0.0,0.0,35,0.00,,FEW250,0.00,VWS V14.01,2013-05-13 22:51:00,
2013-05-13 18:57:00,52.7,25.1,30.09,West,271,0.0,0.0,34,0.00,,FEW250,0.00,VWS V14.01,2013-05-13 22:57:00,
2013-05-13 19:02:00,52.6,25.0,30.09,WNW,290,0.0,0.0,34,0.00,,FEW250,0.00,VWS V14.01,2013-05-13 23:02:00,
2013-05-13 19:07:00,52.6,25.0,30.09,West,276,0.0,0.0,34,0.00,,FEW250,0.00,VWS V14.01,2013-05-13 23:07:00,
2013-05-13 19:12:00,52.4,24.9,30.09,West,276,0.0,0.0,34,0.00,,FEW250,0.00,VWS V14.01,2013-05-13 23:12:00,
2013-05-13 19:17:00,52.2,25.4,30.09,WNW,299,0.0,0.0,35,0.00,,FEW250,0.00,VWS V14.01,2013-05-13 23:17:00,
2013-05-13 19:22:00,51.9,24.4,30.08,WNW,299,0.0,0.0,34,0.00,,FEW250,0.00,VWS V14.01,2013-05-13 23:22:00,
2013-05-13 19:27:00,51.6,24.9,30.08,WNW,299,0.0,0.0,35,0.00,,FEW250,0.00,VWS V14.01,2013-05-13 23:27:00,
2013-05-13 19:32:00,51.3,25.3,30.08,WNW,299,0.0,0.0,36,0.00,,FEW250,0.00,VWS V14.01,2013-05-13 23:32:00,
2013-05-13 19:37:00,51.0,24.3,30.08,WNW,299,0.0,0.0,35,0.00,,FEW250,0.00,VWS V14.01,2013-05-13 23:37:00,
2013-05-13 19:42:00,50.9,25.6,30.08,WNW,299,0.0,0.0,37,0.00,,FEW250,0.00,VWS V14.01,2013-05-13 23:42:00,
2013-05-13 19:47:00,50.6,24.6,30.09,WNW,299,0.0,0.0,36,0.00,,FEW250,0.00,VWS V14.01,2013-05-13 23:47:00,
2013-05-13 19:52:00,50.4,24.5,30.09,WNW,299,0.0,0.0,36,0.00,,FEW250,0.00,VWS V14.01,2013-05-13 23:52:00,
2013-05-13 19:57:00,50.2,25.0,30.08,WNW,299,0.0,0.0,37,0.00,,FEW250,0.00,VWS V14.01,2013-05-13 23:57:00,
2013-05-13 20:02:00,50.1,26.1,30.08,WNW,299,0.0,0.0,39,0.00,,SCT230,0.00,VWS V14.01,2013-05-14 00:02:00,
2013-05-13 20:07:00,50.0,26.0,30.08,WNW,299,0.0,0.0,39,0.00,,SCT230,0.00,VWS V14.01,2013-05-14 00:07:00,
2013-05-13 20:12:00,49.9,26.6,30.08,WNW,299,0.0,0.0,40,0.00,,SCT230,0.00,VWS V14.01,2013-05-14 00:12:00,
2013-05-13 20:17:00,49.8,27.6,30.08,WNW,299,0.0,0.0,42,0.00,,SCT230,0.00,VWS V14.01,2013-05-14 00:17:00,
2013-05-13 20:22:00,49.6,27.5,30.08,WNW,299,0.0,0.0,42,0.00,,SCT230,0.00,VWS V14.01,2013-05-14 00:22:00,
2013-05-13 20:27:00,49.4,27.3,30.08,WNW,299,0.0,0.0,42,0.00,,SCT230,0.00,VWS V14.01,2013-05-14 00:27:00,
2013-05-13 20:32:00,49.2,27.7,30.07,WNW,299,0.0,0.0,43,0.00,,SCT230,0.00,VWS V14.01,2013-05-14 00:32:00,
2013-05-13 20:37:00,49.0,29.1,30.07,WNW,299,0.0,0.0,46,0.00,,SCT230,0.00,VWS V14.01,2013-05-14 00:37:00,
2013-05-13 20:42:00,48.8,29.0,30.07,WNW,299,0.0,0.0,46,0.00,,SCT230,0.00,VWS V14.01,2013-05-14 00:42:00,
2013-05-13 20:48:00,48.6,28.8,30.07,WNW,299,0.0,0.0,46,0.00,,SCT230,0.00,VWS V14.01,2013-05-14 00:48:00,
2013-05-13 20:53:00,48.4,29.1,30.07,WNW,299,0.0,0.0,47,0.00,,SCT230,0.00,VWS V14.01,2013-05-14 00:53:00,
2013-05-13 20:58:00,48.3,29.0,30.07,WNW,299,0.0,0.0,47,0.00,,SCT230,0.00,VWS V14.01,2013-05-14 00:58:00,
2013-05-13 21:03:00,48.1,29.9,30.07,WNW,299,0.0,0.0,49,0.00,,BKN250,0.00,VWS V14.01,2013-05-14 01:03:00,
2013-05-13 21:08:00,48.0,29.8,30.07,WNW,299,0.0,0.0,49,0.00,,BKN250,0.00,VWS V14.01,2013-05-14 01:08:00,
2013-05-13 21:13:00,47.8,29.6,30.06,WNW,299,0.0,0.0,49,0.00,,BKN250,0.00,VWS V14.01,2013-05-14 01:13:00,
2013-05-13 21:18:00,47.6,29.9,30.06,WNW,299,0.0,0.0,50,0.00,,BKN250,0.00,VWS V14.01,2013-05-14 01:18:00,
2013-05-13 21:23:00,47.4,30.2,30.06,WNW,299,0.0,0.0,51,0.00,,BKN250,0.00,VWS V14.01,2013-05-14 01:23:00,
2013-05-13 21:28:00,47.3,30.1,30.06,WNW,299,0.0,0.0,51,0.00,,BKN250,0.00,VWS V14.01,2013-05-14 01:28:00,
2013-05-13 21:33:00,47.1,29.9,30.06,WNW,299,0.0,0.0,51,0.00,,BKN250,0.00,VWS V14.01,2013-05-14 01:33:00,
2013-05-13 21:38:00,46.9,30.2,30.06,WNW,299,0.0,0.0,52,0.00,,BKN250,0.00,VWS V14.01,2013-05-14 01:38:00,
2013-05-13 21:43:00,46.8,30.1,30.06,WNW,299,0.0,0.0,52,0.00,,BKN250,0.00,VWS V14.01,2013-05-14 01:43:00,
2013-05-13 21:48:00,46.6,31.3,30.06,WNW,299,0.0,0.0,55,0.00,,BKN250,0.00,VWS V14.01,2013-05-14 01:48:00,
2013-05-13 21:53:00,46.4,31.6,30.06,WNW,299,0.0,0.0,56,0.00,,BKN250,0.00,VWS V14.01,2013-05-14 01:53:00,
2013-05-13 21:58:00,46.4,32.0,30.06,WNW,299,0.0,0.0,57,0.00,,BKN250,0.00,VWS V14.01,2013-05-14 01:58:00,
2013-05-13 22:03:00,46.3,31.9,30.06,WNW,299,0.0,0.0,57,0.00,,OVC150,0.00,VWS V14.01,2013-05-14 02:03:00,
2013-05-13 22:08:00,46.2,31.4,30.06,WNW,299,0.0,0.0,56,0.00,,OVC150,0.00,VWS V14.01,2013-05-14 02:08:00,
2013-05-13 22:13:00,46.0,32.1,30.06,WNW,299,0.0,0.0,58,0.00,,OVC150,0.00,VWS V14.01,2013-05-14 02:13:00,
2013-05-13 22:18:00,45.9,32.0,30.06,WNW,299,0.0,0.0,58,0.00,,OVC150,0.00,VWS V14.01,2013-05-14 02:18:00,
2013-05-13 22:23:00,45.9,32.4,30.06,WNW,299,0.0,0.0,59,0.00,,OVC150,0.00,VWS V14.01,2013-05-14 02:23:00,
2013-05-13 22:28:00,45.7,32.2,30.06,WNW,299,0.0,0.0,59,0.00,,OVC150,0.00,VWS V14.01,2013-05-14 02:28:00,
2013-05-13 22:34:00,45.7,32.6,30.06,WNW,299,0.0,0.0,60,0.00,,OVC150,0.00,VWS V14.01,2013-05-14 02:34:00,
2013-05-13 22:39:00,45.6,32.9,30.06,WNW,299,0.0,0.0,61,0.00,,OVC150,0.00,VWS V14.01,2013-05-14 02:39:00,
2013-05-13 22:44:00,45.5,32.8,30.06,WNW,299,0.0,0.0,61,0.00,,OVC150,0.00,VWS V14.01,2013-05-14 02:44:00,
2013-05-13 22:49:00,45.4,32.8,30.06,WNW,299,0.0,0.0,61,0.00,,OVC150,0.00,VWS V14.01,2013-05-14 02:49:00,
2013-05-13 22:54:00,45.4,33.2,30.06,WNW,299,0.0,0.0,62,0.00,,OVC150,0.00,VWS V14.01,2013-05-14 02:54:00,
2013-05-13 22:59:00,45.3,33.1,30.05,WNW,299,0.0,0.0,62,0.00,,OVC150,0.00,VWS V14.01,2013-05-14 02:59:00,
2013-05-13 23:04:00,45.2,33.0,30.05,WNW,299,0.0,0.0,62,0.00,,OVC130,0.00,VWS V14.01,2013-05-14 03:04:00,
2013-05-13 23:09:00,45.2,33.0,30.05,WNW,299,0.0,0.0,62,0.00,,OVC130,0.00,VWS V14.01,2013-05-14 03:09:00,
2013-05-13 23:14:00,45.1,32.5,30.04,WNW,299,0.0,0.0,61,0.00,,OVC130,0.00,VWS V14.01,2013-05-14 03:14:00,
2013-05-13 23:19:00,45.0,32.0,30.04,WNW,299,0.0,0.0,60,0.00,,OVC130,0.00,VWS V14.01,2013-05-14 03:19:00,
2013-05-13 23:24:00,45.0,32.0,30.04,WNW,299,0.0,0.0,60,0.00,,OVC130,0.00,VWS V14.01,2013-05-14 03:24:00,
2013-05-13 23:29:00,45.1,31.6,30.04,WNW,299,0.0,0.0,59,0.00,,OVC130,0.00,VWS V14.01,2013-05-14 03:29:00,
2013-05-13 23:34:00,45.2,31.7,30.04,WNW,299,0.0,0.0,59,0.00,,OVC130,0.00,VWS V14.01,2013-05-14 03:34:00,
2013-05-13 23:39:00,45.2,31.7,30.03,WNW,299,0.0,0.0,59,0.00,,OVC130,0.00,VWS V14.01,2013-05-14 03:39:00,
2013-05-13 23:44:00,45.3,31.8,30.03,WNW,299,0.0,0.0,59,0.00,,OVC130,0.00,VWS V14.01,2013-05-14 03:44:00,
2013-05-13 23:49:00,45.4,31.5,30.03,WNW,297,0.0,0.0,58,0.00,,OVC130,0.00,VWS V14.01,2013-05-14 03:49:00,
2013-05-13 23:54:00,45.4,31.1,30.03,WNW,295,0.0,0.0,57,0.00,,OVC130,0.00,VWS V14.01,2013-05-14 03:54:00,
2013-05-13 23:59:00,45.5,31.2,30.03,West,281,0.0,0.0,57,0.00,,OVC130,0.00,VWS V14.01,2013-05-14 03:59:00,